Weather History for Jacksonville Craig, FL

Change the Weather History Date:

Friday, September 7, 2012

  Actual Average Record
Temperature  
Mean Temperature 82 °F -  
Max Temperature 91 °F 84 °F 93 °F (1999)
Min Temperature 75 °F 70 °F 66 °F (1997)
Cooling Degree Days 18    
Growing Degree Days 32 (Base 50)    
Moisture  
Dew Point 73 °F    
Average Humidity 78    
Maximum Humidity 91    
Minimum Humidity 52    
Precipitation  
Precipitation 0.53 in - - ()
Sea Level Pressure  
Sea Level Pressure 29.94 in    
Wind  
Wind Speed 3 mph (SSW)    
Max Wind Speed 15 mph    
Max Gust Speed 20 mph    
Visibility 9 miles    
Events Rain , Thunderstorm    
Averages and records for this station are not official NWS values.
T = Trace of Precipitation, MM = Missing Value Source: NWS Daily Summary

Daily Weather History Graph

Daily Weather History Graph

Search for Another Location

Airport:

Trip Planner

Search our weather history database for the weather conditions in past years. The results will help you decide how hot, cold, wet, or windy it might be!

Date:

Astronomy

Sep. 07, 2012 Rise Set
Actual Time 7:06 AM EDT 7:40 PM EDT
Civil Twilight 6:42 AM EDT 8:05 PM EDT
Nautical Twilight 6:13 AM EDT 8:33 PM EDT
Astronomical Twilight 5:44 AM EDT 9:02 PM EDT
Moon No Moon Rise 1:27 PM EDT (9/7)
Length of Visible Light 13h 22m
Length of Day
12h 34m
Waning Gibbous, 58% of the Moon is Illuminated
Sep 7
Waning Gibbous
Sep 8
Last Quarter
Sep 15
New
Sep 22
First Quarter
Sep 29
Full

Hourly Weather History & Observations

Time (EDT) Temp. Heat Index Dew Point Humidity Pressure Visibility Wind Dir Wind Speed Gust Speed Precip Events Conditions
12:53 AM 78.1 °F - 73.0 °F 84% 29.96 in 10.0 mi SW 3.5 mph - N/A   Clear
1:53 AM 77.0 °F - 73.0 °F 88% 29.96 in 10.0 mi SW 3.5 mph - N/A   Clear
2:53 AM 78.1 °F - 73.0 °F 84% 29.95 in 10.0 mi Calm Calm - N/A   Clear
3:53 AM 78.1 °F - 73.0 °F 84% 29.93 in 10.0 mi Calm Calm - N/A   Clear
4:53 AM 75.0 °F - 71.1 °F 87% 29.93 in 10.0 mi SW 3.5 mph - N/A   Clear
5:53 AM 75.9 °F - 73.0 °F 91% 29.94 in 10.0 mi Calm Calm - N/A   Clear
6:53 AM 75.9 °F - 73.0 °F 91% 29.95 in 9.0 mi Calm Calm - N/A   Clear
7:53 AM 77.0 °F - 73.9 °F 90% 29.97 in 7.0 mi Calm Calm - N/A   Clear
8:53 AM 81.0 °F 86.2 °F 73.9 °F 79% 29.99 in 10.0 mi WSW 4.6 mph - N/A   Clear
9:53 AM 84.0 °F 91.2 °F 73.9 °F 72% 29.99 in 10.0 mi Calm Calm - N/A   Partly Cloudy
10:53 AM 86.0 °F 92.2 °F 72.0 °F 63% 29.99 in 10.0 mi WSW 6.9 mph - N/A   Partly Cloudy
11:53 AM 87.1 °F 92.8 °F 71.1 °F 59% 29.99 in 10.0 mi WSW 8.1 mph - N/A   Partly Cloudy
12:53 PM 90.0 °F 95.4 °F 70.0 °F 52% 29.96 in 10.0 mi Variable 4.6 mph - N/A   Scattered Clouds
1:53 PM 88.0 °F 96.5 °F 73.9 °F 63% 29.95 in 10.0 mi NE 6.9 mph - N/A   Overcast
2:53 PM 86.0 °F 95.1 °F 75.0 °F 70% 29.92 in 10.0 mi ESE 6.9 mph - 0.00 in Rain Light Rain
3:53 PM 89.1 °F 98.0 °F 73.9 °F 61% 29.90 in 10.0 mi ESE 6.9 mph - 0.00 in   Mostly Cloudy
4:53 PM 84.9 °F 92.1 °F 73.9 °F 69% 29.90 in 10.0 mi SSE 11.5 mph - 0.00 in Rain Light Rain
5:06 PM 80.6 °F 85.4 °F 73.4 °F 79% 29.92 in 3.0 mi WSW 15.0 mph 19.6 mph 0.04 in Rain , Thunderstorm Thunderstorms and Rain
5:53 PM 78.1 °F - 73.9 °F 87% 29.91 in 7.0 mi Calm Calm - 0.53 in Rain Light Rain
6:53 PM 81.0 °F 86.7 °F 75.0 °F 82% 29.91 in 10.0 mi Calm Calm - 0.00 in   Partly Cloudy
7:53 PM 80.1 °F 84.5 °F 73.9 °F 81% 29.92 in 10.0 mi SSE 3.5 mph - N/A   Mostly Cloudy
8:53 PM 79.0 °F - 73.0 °F 82% 29.92 in 10.0 mi South 3.5 mph - N/A   Clear
9:53 PM 78.1 °F - 73.0 °F 84% 29.93 in 10.0 mi SSE 3.5 mph - N/A   Clear
10:53 PM 78.1 °F - 73.0 °F 84% 29.92 in 10.0 mi South 5.8 mph - N/A   Clear
11:53 PM 78.1 °F - 72.0 °F 81% 29.91 in 10.0 mi SSW 3.5 mph - N/A   Clear